Kezdőlap
METAR-TAF:

METAR-TAF

Repülőterek :

Dumas, Texas, Amerikai Egyesült Államok

földrajzi szélesség: 35-51-28N, földrajzi hosszúság: 102-00-47W, magasság: 1129 m

Jelenlegi meteorológiai megfigyelések

A jelentés 26 perccel ezelõtt készült, 03:15 UTC
Dél-délnyugati szél 6 kt
Hőmérséklet 22°C
Páratartalom 83%
Légköri nyomás 1020 hPa
Látótávolság: 16.1 km
Derült ég

METAR: KDUX 220315Z AUTO 20006KT 10SM CLR 22/19 A3013 RMK AO2 T02230185

Idő: 22:41 (03:41 UTC)


TAF: hiányzik

Meteorológiai megfigyelések és előrejelzések több, mint 4000 repülőtéren (METAR és TAF jelentéseket).

A térképen piros és sárga pontok jelzik az elérhető meteorológiai állomásokat.

Mozgassa az egeret a pont fölött, hogy megjelenjen az állomás neve.

Azután kattintson az időjárási megfigyelések és előrejelzések megtekintéséhez.

A térkép megváltoztatása: kattintson a fekete keresztel jelölt zöld gombra ráközelítéshez, a vonallal jelölt zöld gombra távolításhoz, vagy a zöld nyilakra a szomszédos térképek eléréséhez.


METAR-TAF: